Location: Rounton
(54.4000°N, 1.3500°W)
Time: 13:05:02
(UTC+00:00)

Vanguard 2 - Pass Details

Date: 03 December 2021
Orbit: 553 x 2936 km, 32.9° (Epoch: 23 January)

Event Time Altitude Azimuth Distance (km) Brightness Sun altitude
Rises 15:50:22 0° 229° (SW) 3,456 14.2 -1.6°
Reaches altitude 10° 15:54:07 10° 202° (SSW) 2,892 11.6 -2.0°
Maximum altitude 15:57:22 14° 175° (S) 2,963 11.0 -2.4°
Drops below altitude 10° 16:01:16 10° 149° (SSE) 3,637 11.0 -2.8°
Sets 16:07:20 0° 127° (SE) 5,231 11.6 -3.6°
